This demonstration page uses our WeatherBlox Daily Observations layout. Learn more.

39.92423, -83.80882

Hourly Observations for June 5, 2016

Temp ( °F °C ) Dew Point ( °F °C ) Humidity (%) Winds ( mph kmh ) Pressure ( in mb ) Visibility ( mi km ) Precip ( " mm )
12:03 am 00:03 Mostly Cloudy 66 19 66 19 100 100 SW 8 13 29.77 1008 10 16.0934 0 0
12:42 am 00:42 Mostly Cloudy 66 19 66 19 100 100 SW 5 7 29.77 1008 10 16.0934 0 0
12:56 am 00:56 Partly Cloudy 66 18.8 66 18.8 100 100 SW 6 9 29.76 1008 10 16.0934 0 0
1:56 am 01:56 Clear 65 18.3 65 18.3 100 100 SSW 6 9 29.75 1008 10 16.0934 0 0
2:56 am 02:56 Mostly Clear 64 17.7 64 17.7 100 100 SW 6 9 29.74 1007 10 16.0934 0 0
3:10 am 03:10 Mostly Cloudy 64 18 64 18 100 100 SSW 8 13 29.74 1007 10 16.0934 0 0
3:56 am 03:56 Cloudy with Mist and Fog 65 18.3 65 18.3 100 100 SSW 8 13 29.74 1007 6 9.65604 0 0
4:31 am 04:31 Partly Cloudy with Mist and Fog 64 18 64 18 100 100 SSW 8 13 29.71 1006 5 8.0467 0 0
4:47 am 04:47 Mostly Cloudy 64 18 64 18 100 100 SW 8 13 29.71 1006 7 11.26538 0 0
4:56 am 04:56 Mostly Cloudy with Mist and Fog 65 18.3 65 18.3 100 100 SSW 8 13 29.73 1007 6 9.65604 0 0
5:06 am 05:06 Cloudy with Mist and Fog 64 18 64 18 100 100 SW 10 17 29.71 1006 5 8.0467 0 0
5:56 am 05:56 Cloudy 66 18.8 66 18.8 100 100 SW 9 15 29.73 1007 9 14.48406 0 0
6:56 am 06:56 Cloudy with Mist and Fog 66 18.8 66 18.8 100 100 SW 8 13 29.73 1007 6 9.65604 0 0
7:56 am 07:56 Mostly Cloudy 67 19.4 67 19.4 100 100 SSW 9 15 29.73 1007 8 12.87472 0 0
8:31 am 08:31 Cloudy 68 20 68 20 100 100 SW 12 19 29.71 1006 10 16.0934 0 0
8:56 am 08:56 Cloudy 68 20 68 20 100 100 SW 12 19 29.74 1007 10 16.0934 0 0
9:56 am 09:56 Mostly Cloudy 71 21.6 68 20 91 91 SW 16 26 29.72 1006 10 16.0934 0 0
10:11 am 10:11 Partly Cloudy 72 22 68 20 88 88 SW 13 20 29.71 1006 10 16.0934 0 0
10:37 am 10:37 Mostly Cloudy 73 23 66 19 78 78 SW 14 22 29.68 1005 10 16.0934 0 0
10:49 am 10:49 Partly Cloudy 73 23 66 19 78 78 SSW 16 26 29.68 1005 10 16.0934 0 0
10:56 am 10:56 Partly Cloudy 74 23.3 67 19.4 79 79 SW 16 26 29.71 1006 10 16.0934 0 0
11:56 am 11:56 Mostly Cloudy 76 24.4 65 18.3 69 69 SW 20 31 29.7 1006 10 16.0934 0 0
12:56 pm 12:56 Mostly Sunny 79 26.1 65 18.3 62 62 SW 15 24 29.69 1005 10 16.0934 0 0
1:56 pm 13:56 Mostly Cloudy with Heavy Thunderstorms 74 23.3 66 18.8 76 76 W 17 28 29.7 1006 2 3.21868 0.09 2.286
2:03 pm 14:03 Mostly Cloudy with Light Thunderstorms 70 21 64 18 83 83 SW 14 22 29.68 1005 N/A 0.02 0.508
2:14 pm 14:14 Mostly Cloudy 72 22 66 19 83 83 WSW 15 24 29.68 1005 10 16.0934 0.02 0.508
2:56 pm 14:56 Sunny 78 25.5 66 18.8 67 67 WSW 18 30 29.67 1005 10 16.0934 0.02 0.508
3:56 pm 15:56 Mostly Sunny 80 26.6 62 16.6 54 54 W 22 35 29.67 1005 10 16.0934 0 0
4:56 pm 16:56 Sunny 79 26.1 62 16.6 56 56 WSW 21 33 29.68 1005 10 16.0934 0 0
5:56 pm 17:56 Mostly Cloudy 77 25 61 16.1 58 58 W 16 26 29.69 1006 10 16.0934 0 0
6:56 pm 18:56 Mostly Sunny 76 24.4 59 15 56 56 WSW 16 26 29.71 1006 10 16.0934 0 0
7:56 pm 19:56 Sunny 75 23.8 58 14.4 56 56 W 15 24 29.73 1007 10 16.0934 0 0
8:56 pm 20:56 Sunny 72 22.2 58 14.4 61 61 WSW 14 22 29.74 1007 10 16.0934 0 0
9:56 pm 21:56 Clear 69 20.5 59 15 71 71 WSW 9 15 29.75 1008 10 16.0934 0 0
10:56 pm 22:56 Clear 67 19.4 59 15 76 76 SW 8 13 29.77 1008 10 16.0934 0 0
11:56 pm 23:56 Clear 65 18.3 60 15.5 84 84 SW 10 17 29.77 1008 10 16.0934 0 0

Powered by AerisWeather